This is the latest recevied weather packets stored in our database for station/object SQ6RR-11. If no packets are shown the sender has not sent any weather packets the latest 10 day(s).
| Time | Temp. | Humidity | Pressure | Rain* | Wind** | Luminosity | Snow |
|---|---|---|---|---|---|---|---|
| 1777910407 | 25.56° C | 25% | 1013 hPa | 0 mm | - | - | - |
| 1777910127 | 26.11° C | 25% | 1013.1 hPa | 0 mm | - | - | - |
| 1777909861 | 25.56° C | 25% | 1013 hPa | 0 mm | - | - | - |
| 1777909594 | 25.56° C | 26% | 1013.1 hPa | 0 mm | - | - | - |
| 1777909317 | 25.56° C | 26% | 1013.1 hPa | 0 mm | - | - | - |
| 1777909074 | 25.56° C | 26% | 1013.1 hPa | 0 mm | - | - | - |
| 1777908809 | 25.56° C | 25% | 1013.2 hPa | 0 mm | - | - | - |
| 1777908549 | 25.56° C | 25% | 1013.2 hPa | 0 mm | - | - | - |
| 1777908281 | 26.11° C | 24% | 1013.3 hPa | 0 mm | - | - | - |
| 1777908007 | 26.67° C | 23% | 1013.2 hPa | 0 mm | - | - | - |
| 1777907737 | 26.67° C | 24% | 1013.4 hPa | 0 mm | - | - | - |
| 1777907467 | 26.11° C | 23% | 1013.4 hPa | 0 mm | - | - | - |
| 1777907207 | 26.67° C | 23% | 1013.3 hPa | 0 mm | - | - | - |
| 1777906961 | 27.22° C | 22% | 1013.2 hPa | 0 mm | - | - | - |
| 1777906702 | 27.22° C | 24% | 1013.3 hPa | 0 mm | - | - | - |
| 1777906422 | 26.67° C | 24% | 1013.4 hPa | 0 mm | - | - | - |
| 1777906152 | 25.56° C | 24% | 1013.4 hPa | 0 mm | - | - | - |
| 1777905892 | 26.11° C | 23% | 1013.4 hPa | 0 mm | - | - | - |
| 1777905631 | 26.67° C | 22% | 1013.4 hPa | 0 mm | - | - | - |
| 1777905387 | 27.78° C | 22% | 1013.4 hPa | 0 mm | - | - | - |
| 1777905132 | 27.78° C | 23% | 1013.5 hPa | 0 mm | - | - | - |
| 1777904866 | 27.78° C | 22% | 1013.5 hPa | 0 mm | - | - | - |
| 1777904599 | 26.67° C | 25% | 1013.6 hPa | 0 mm | - | - | - |
| 1777904325 | 25.56° C | 26% | 1013.6 hPa | 0 mm | - | - | - |
| 1777904047 | 25° C | 25% | 1013.6 hPa | 0 mm | - | - | - |
* Rain latest hour (hover to see other rain measurements)
** Current wind speed in m/s (hover to see current wind gust speed)